Temperature
19 19 19 19 17 17 19 19 19 20 20 20 20 20 19 19 19 19 18 18 18 18 18 18 18 18 18 18 18 18 18 18 18 18 18 18 18 18 18 18 18 18 18 18 18 18 18 18 18
19 19 19 18 17 18 19 19 19 20 21 20 20 20 19 18 19 19 18 18 18 18 18 18 18 18 18 18 18 18 18 18 18 18 17 17 17 17 18 18 18 18 18 18 18 18 18 18 18
19 18 18 17 18 18 20 20 19 20 21 21 20 20 19 19 19 19 19 18 18 18 18 18 18 18 18 17 17 17 17 17 17 17 17 17 17 17 17 17 17 17 17 18 18 18 18 18 18
19 18 18 17 19 19 19 20 19 20 21 21 20 19 19 19 19 19 19 18 18 18 18 18 18 18 17 17 17 17 17 17 17 17 17 17 17 17 17 17 17 17 17 17 17 17 17 18 18
18 18 18 18 19 19 19 19 20 20 21 20 20 18 18 19 19 19 19 18 18 18 18 18 18 17 17 17 17 17 17 17 17 16 16 16 16 16 16 17 17 17 17 17 17 17 17 17 17
19 17 18 18 19 19 19 20 20 20 20 20 19 18 18 19 19 19 19 18 18 18 18 18 17 17 17 17 17 16 16 16 16 16 16 16 16 16 16 16 16 16 16 17 17 17 17 17 17
18 17 18 18 19 19 20 20 20 20 20 20 20 18 18 19 19 19 18 18 18 18 18 17 17 17 17 16 16 16 16 16 15 15 15 15 15 15 15 16 16 16 16 16 16 16 17 17 17
19 17 18 18 19 19 20 20 21 21 20 21 21 19 18 19 19 19 18 18 18 18 18 17 17 17 17 16 16 16 15 15 15 15 15 15 15 15 15 15 15 15 15 16 16 16 16 16 16
19 17 18 18 19 19 20 20 21 21 21 20 20 20 20 20 19 18 18 18 18 18 18 17 17 17 16 16 16 16 15 15 15 15 15 15 15 15 15 15 15 15 15 15 15 15 16 16 16
18 17 18 19 19 19 19 20 20 20 20 20 20 20 20 19 19 19 19 19 18 18 18 17 17 17 17 16 16 16 15 15 15 15 15 15 15 14 14 15 15 15 15 15 15 15 15 16 16
18 18 18 18 19 19 19 19 20 20 20 20 21 21 20 20 19 19 19 19 19 18 18 18 17 17 17 16 16 16 15 15 15 15 15 14 14 14 14 14 14 14 15 15 15 15 15 15 16
18 18 18 18 19 19 19 20 20 20 21 22 22 21 20 20 20 20 20 19 19 19 18 18 18 17 17 16 16 16 15 15 15 15 14 14 14 14 14 14 14 14 14 14 15 15 15 15 15
18 18 18 19 19 19 19 19 20 20 22 22 21 21 20 20 20 20 20 20 19 19 18 18 18 17 17 16 16 16 15 15 15 14 14 14 14 14 14 14 14 14 14 14 14 14 15 15 15
18 18 18 18 18 19 19 19 20 20 21 21 21 21 21 20 20 20 20 20 19 19 18 18 18 17 17 16 16 16 15 15 15 14 14 14 14 14 14 14 14 14 14 14 14 14 14 14 15
18 18 18 18 18 18 19 19 19 21 21 21 21 21 21 21 20 20 20 20 20 19 19 18 18 17 17 16 16 15 15 15 14 14 14 14 14 13 13 13 13 13 13 14 14 14 14 14 14
18 18 18 18 18 19 19 19 20 21 21 21 21 21 21 21 21 21 20 20 20 19 19 18 18 17 17 16 16 15 15 15 14 14 14 13 13 13 13 13 13 13 13 13 13 14 14 14 14
17 17 18 18 18 18 19 19 20 21 20 20 21 21 21 21 21 21 21 20 20 19 19 18 18 17 17 16 16 15 15 14 14 14 13 13 13 13 13 13 13 13 13 13 13 13 14 14 14
17 17 18 18 19 18 18 18 19 20 20 20 20 21 21 21 22 21 21 20 20 19 19 18 18 17 17 16 16 15 15 14 14 14 13 13 13 13 13 13 13 13 13 13 13 13 13 14 14
18 18 18 18 19 18 18 18 19 20 19 19 20 20 21 22 22 21 21 20 20 19 19 18 18 17 17 16 16 15 15 14 14 14 13 13 13 13 13 13 13 13 13 13 13 13 13 14 14
18 18 18 18 19 19 18 18 19 19 19 20 20 21 21 22 22 21 21 20 20 20 19 19 18 17 17 16 16 15 15 14 14 14 13 13 13 13 13 13 13 13 13 13 13 13 13 13 13
18 18 18 18 19 19 19 19 19 19 20 20 21 21 21 22 22 22 21 21 20 20 19 19 18 17 17 16 16 15 15 14 14 14 13 13 13 13 13 13 13 13 12 13 13 13 13 13 13
18 19 19 19 18 17 18 18 19 18 18 19 20 21 21 22 22 22 21 21 21 20 19 19 18 17 17 16 16 15 15 14 14 14 13 13 13 13 13 13 13 12 12 12 12 13 13 13 13
18 19 19 18 18 17 17 18 18 17 20 19 19 21 21 22 22 22 22 21 21 20 19 19 18 17 17 16 16 15 15 14 14 14 13 13 13 13 13 13 12 12 12 12 12 13 13 13 13
19 18 17 16 16 17 18 18 18 17 19 19 19 21 22 22 22 22 22 21 21 20 19 19 18 17 17 16 16 15 15 14 14 14 14 13 13 13 13 13 13 13 12 12 12 12 13 13 13
18 17 16 17 16 17 17 18 18 19 19 18 19 21 22 22 22 22 21 21 21 20 19 19 18 18 17 16 16 15 15 15 14 14 14 13 13 13 13 13 13 13 13 13 13 13 13 13 13
18 18 17 18 17 17 17 18 18 19 19 20 20 21 22 22 22 22 22 21 21 20 20 19 18 18 17 17 16 16 15 15 14 14 14 14 13 13 13 13 13 13 13 13 13 13 13 13 13
18 17 17 16 17 16 17 17 18 19 19 19 20 20 21 21 21 22 22 21 21 20 20 19 19 18 17 17 16 16 15 15 14 14 14 14 13 13 13 13 13 13 13 13 13 13 13 12 13
19 16 15 16 17 17 18 17 17 19 18 17 17 19 20 21 21 21 21 21 21 20 20 19 18 18 17 17 16 16 15 15 15 14 14 14 14 13 13 13 13 13 13 13 13 13 13 13 12
19 17 15 14 15 16 17 17 17 17 17 17 17 18 19 20 21 21 21 21 20 20 19 19 18 18 17 17 16 16 16 15 15 14 14 14 14 14 13 13 13 13 13 13 13 13 13 13 13
20 18 16 17 16 15 15 16 17 16 16 16 17 18 19 19 20 20 20 20 20 20 19 19 18 18 17 17 16 16 16 15 15 15 14 14 14 14 14 13 13 13 13 13 13 13 13 13 13
Wind_Speed
3 5 3 3 4 3 1 2 1 1 1 1 2 4 6 4 2 2 0 4 6 6 6 8 8 8 8 7 7 6 5 5 5 4 3 3 3 2 2 2 2 2 2 2 2 2 2 1 2
4 3 3 4 3 1 2 2 1 2 3 4 3 4 5 4 3 4 2 4 7 6 6 7 8 7 7 7 6 6 5 5 4 3 3 2 1 1 1 0 1 1 2 2 1 1 1 1 1
4 3 3 3 2 2 2 2 2 0 3 2 3 4 3 3 3 4 4 7 7 6 6 7 8 7 7 6 5 5 4 4 3 2 2 2 2 2 2 2 2 2 2 2 2 2 2 2 2
3 3 3 3 1 3 3 2 1 1 2 3 4 4 2 1 4 5 7 9 8 5 6 7 8 7 6 6 5 4 3 2 2 2 2 2 2 3 3 3 3 3 3 3 3 3 3 3 3
3 3 3 1 3 3 2 2 2 1 2 3 4 4 2 3 5 9 9 8 8 5 5 6 8 7 6 5 5 4 3 2 2 2 3 3 3 3 4 4 4 4 4 4 4 4 4 4 4
3 3 2 1 3 3 2 1 0 2 2 3 4 4 1 2 7 8 8 7 7 6 5 5 7 6 5 4 4 2 2 2 2 3 3 4 4 4 4 5 5 5 5 5 5 5 5 5 5
3 3 2 2 3 3 1 1 2 2 3 4 5 5 2 2 5 7 7 6 5 5 4 3 4 4 4 3 2 1 1 2 2 3 4 4 4 4 5 5 5 6 6 6 6 5 5 6 6
4 3 1 1 2 3 1 0 1 3 2 3 5 6 5 6 7 7 6 5 4 3 3 2 2 2 1 1 1 0 1 2 3 4 4 5 6 6 6 6 6 6 5 6 6 6 5 5 6
3 3 1 2 3 3 1 2 2 2 3 2 2 4 5 10 10 8 5 3 2 3 2 2 2 2 2 2 1 1 2 3 4 5 6 6 6 6 6 6 6 5 6 5 6 5 5 5 5
3 2 3 2 2 2 2 1 1 2 1 1 2 3 8 11 11 10 8 7 6 6 4 3 3 2 2 1 1 1 2 4 4 4 5 5 5 5 5 7 7 6 6 5 5 5 4 3 3
4 4 2 1 2 1 1 1 1 3 2 4 5 7 10 10 10 10 9 8 8 6 5 5 4 3 2 1 1 1 2 3 3 4 4 4 4 5 6 6 6 7 6 5 5 5 4 2 1
2 1 1 1 1 1 0 1 1 3 6 5 7 10 11 12 12 12 11 9 6 6 5 5 5 3 2 2 1 1 1 1 2 3 3 3 2 3 3 3 4 4 4 4 3 2 3 3 2
2 1 1 1 1 1 1 1 2 4 4 2 6 10 12 13 11 10 9 8 7 6 6 5 5 4 3 2 1 1 1 1 1 2 3 2 1 1 2 2 3 4 4 3 2 2 2 2 2
1 1 1 1 1 2 1 2 1 5 2 4 7 10 12 12 11 8 8 8 8 8 7 5 5 4 4 3 2 1 1 1 2 2 2 2 2 1 1 2 2 3 3 3 2 2 2 2 2
2 2 3 2 1 1 1 4 4 5 4 6 7 8 10 10 10 10 10 10 9 8 6 6 6 5 4 3 2 2 2 2 1 2 2 2 2 1 1 1 2 3 4 3 2 2 1 2 2
3 3 2 3 1 2 1 5 5 3 5 6 7 7 8 9 10 10 10 9 8 7 7 7 6 6 4 3 2 2 2 2 1 1 2 3 2 2 1 1 2 3 3 2 2 1 1 2 2
4 2 1 3 1 0 1 7 6 3 5 7 7 8 9 9 9 9 9 9 8 9 8 7 6 6 5 4 3 2 2 1 1 1 2 2 3 2 1 1 2 3 2 2 2 1 1 1 2
2 2 1 3 2 1 3 8 9 5 7 8 8 8 9 11 12 9 8 8 8 7 7 7 6 5 5 4 3 2 2 1 1 1 2 2 3 3 2 1 2 2 2 2 2 1 1 1 1
4 3 2 3 1 2 6 9 11 6 5 7 8 8 10 11 9 6 7 7 7 7 7 7 7 5 4 3 2 2 0 1 1 2 2 3 3 3 2 1 2 2 2 2 2 1 1 2 1
3 1 1 3 0 2 5 8 8 5 5 7 8 9 9 8 6 6 7 8 8 9 8 8 7 7 5 3 2 2 2 1 1 2 2 3 3 3 2 1 1 2 1 2 2 1 1 1 2
0 2 2 1 3 2 4 8 6 5 4 3 4 5 6 9 10 9 8 9 8 9 10 9 8 7 6 4 3 3 2 2 2 2 2 3 3 3 2 2 1 1 1 2 2 1 0 1 1
2 3 3 0 2 3 4 3 7 6 7 4 3 3 6 7 8 8 9 10 11 10 9 8 8 7 6 5 4 4 3 2 2 2 2 3 3 3 3 2 2 1 1 2 2 0 0 1 0
3 1 3 2 2 3 4 2 8 6 6 7 6 5 6 6 7 9 10 11 9 8 8 8 7 7 6 5 6 5 3 2 1 1 2 3 3 3 3 2 1 1 1 1 2 1 0 1 1
3 5 5 5 4 4 4 2 5 4 6 8 7 6 5 5 5 6 6 6 6 7 7 7 8 7 6 6 5 6 5 4 2 1 2 2 3 3 3 2 1 1 1 1 1 1 0 0 1
5 5 5 6 6 3 4 1 5 6 6 6 8 8 5 3 3 5 7 8 8 9 8 8 8 7 7 6 6 6 6 5 4 3 3 2 2 2 3 2 2 2 2 1 1 0 0 0 1
3 6 6 3 1 4 5 2 5 6 7 6 5 5 4 3 3 5 7 8 8 9 8 9 9 8 7 7 7 5 5 4 4 4 3 3 3 4 4 2 2 2 1 1 0 0 0 0 0
5 3 5 6 2 2 5 6 8 8 10 10 9 8 7 5 4 4 5 6 7 8 9 9 9 8 8 8 7 6 6 5 5 4 3 3 3 3 3 2 2 1 1 0 0 0 0 0 0
4 7 6 5 3 1 5 5 5 9 10 10 10 9 8 7 5 3 3 5 6 7 7 7 8 8 7 7 7 6 6 6 5 4 4 4 4 3 2 2 2 1 1 0 1 0 1 0 0
4 5 6 5 5 5 0 5 4 5 7 7 8 9 8 7 5 4 3 3 3 4 5 6 7 6 6 7 7 6 6 6 5 5 5 4 4 3 3 3 2 2 2 1 1 1 0 0 1
2 4 5 4 2 4 3 5 4 4 6 6 7 9 8 7 5 4 3 2 1 2 4 6 6 6 7 7 6 7 6 5 5 6 6 5 4 4 4 3 3 3 2 2 2 2 2 2 1
Wind_Direction
135 102 85 57 53 45 302 264 213 241 183 86 73 80 96 88 91 132 99 134 130 132 144 148 143 135 128 121 118 114 109 103 100 96 98 100 102 106 119 141 155 154 150 156 148 149 140 116 99
118 99 60 58 78 48 290 263 250 236 162 135 82 72 76 71 77 107 116 140 133 133 136 143 142 135 128 125 120 112 105 98 93 88 83 80 74 60 39 303 255 230 209 211 217 219 205 197 171
119 62 73 73 98 193 250 253 231 52 132 112 78 57 84 121 131 147 161 139 127 126 133 147 141 134 130 125 118 111 102 94 82 71 54 36 13 359 339 311 290 276 260 253 248 253 250 240 232
95 53 58 72 242 239 231 251 207 133 107 78 103 75 59 82 152 151 138 135 130 128 135 149 141 135 132 127 121 113 101 85 59 29 10 350 333 324 319 311 301 290 282 275 265 259 259 260 249
68 80 64 7 269 263 256 258 192 172 119 96 108 105 62 14 114 130 136 139 140 138 141 150 143 138 136 133 129 121 105 79 45 20 6 356 336 322 316 304 295 292 291 287 279 268 265 264 266
71 77 91 273 280 292 280 226 152 120 109 110 115 120 115 99 128 142 141 142 146 146 144 151 154 151 150 148 139 127 100 59 27 9 358 352 341 330 316 309 295 288 289 290 283 277 268 264 264
113 112 171 236 286 299 276 164 146 134 136 161 141 122 132 170 165 147 140 139 141 141 138 152 163 163 163 163 153 125 70 35 20 5 357 348 343 340 333 319 307 293 286 286 284 283 272 263 265
131 113 114 277 272 279 305 126 141 148 151 133 133 147 184 192 157 131 121 124 135 142 154 167 169 162 144 161 191 179 26 22 16 7 1 358 360 354 343 336 321 304 295 289 288 287 281 274 273
103 85 230 243 237 274 350 27 23 64 108 107 141 174 179 143 134 125 121 124 157 180 187 179 179 188 189 216 265 359 10 13 13 8 6 11 9 1 350 344 339 325 316 306 300 300 294 289 288
103 139 227 226 232 276 347 13 44 64 84 104 84 91 125 136 147 155 166 181 191 201 204 196 191 196 197 215 87 16 13 15 11 8 11 16 19 9 5 1 1 357 351 343 333 327 324 316 315
153 182 228 294 273 288 10 341 49 126 222 208 190 158 146 152 162 173 185 191 198 201 200 191 189 186 176 166 105 36 22 20 14 15 19 27 28 20 19 16 11 8 8 2 352 359 356 352 320
156 182 150 308 330 37 325 321 10 203 238 225 187 161 160 169 179 187 193 196 194 192 198 188 179 172 173 158 135 106 65 36 23 13 24 45 35 17 13 14 4 4 357 349 346 347 341 331 307
155 181 113 14 7 295 300 281 260 261 266 198 157 159 172 183 191 198 198 195 190 192 192 183 171 170 166 152 168 123 114 90 57 36 31 69 74 22 14 7 8 358 352 346 331 331 332 324 313
154 87 349 342 357 353 307 275 207 261 208 171 171 179 188 194 196 195 198 200 197 194 189 177 172 169 158 160 162 149 131 119 75 58 42 64 79 59 28 6 356 348 342 334 322 310 312 308 305
95 58 1 332 331 323 343 308 243 239 173 180 190 197 200 206 202 203 204 202 196 189 179 174 173 163 161 161 163 144 141 126 87 60 51 48 53 46 40 10 347 329 332 336 337 324 324 316 319
69 62 359 314 336 319 114 266 262 213 175 198 205 207 212 218 215 216 207 200 187 177 174 180 171 156 158 152 143 126 120 115 89 58 38 23 26 39 46 12 338 335 341 345 332 337 323 319 322
46 72 312 306 238 257 201 262 276 213 201 218 217 214 219 226 228 221 207 197 184 179 174 168 153 151 148 133 112 98 88 80 58 37 16 5 9 14 31 353 327 342 349 346 327 356 297 302 320
170 154 258 273 258 207 257 270 284 255 220 228 224 220 220 223 227 217 201 188 177 170 164 158 149 146 133 110 89 65 52 25 19 6 344 354 359 1 8 345 339 351 359 348 341 330 329 292 305
146 152 234 262 241 224 263 278 285 274 240 236 230 224 226 228 227 203 185 172 161 161 163 166 160 157 144 127 126 122 178 302 318 314 329 343 345 351 358 342 340 349 355 329 325 322 347 356 355
109 97 297 309 324 234 290 289 288 268 243 233 228 227 226 225 215 198 181 172 174 175 176 175 173 170 171 162 152 155 157 223 265 298 326 334 338 338 330 325 323 332 336 347 352 7 7 0 30
104 181 213 276 347 15 341 331 330 318 309 284 243 226 220 214 211 200 187 184 180 184 185 185 182 178 176 158 122 88 61 30 6 335 321 321 327 333 334 320 310 322 329 321 318 335 81 14 2
264 232 192 273 40 344 32 335 313 323 330 326 301 248 230 222 210 198 189 189 194 193 184 179 178 177 174 162 160 153 156 191 240 260 285 306 325 332 332 324 314 316 318 315 307 44 183 140 3
213 51 90 75 107 26 21 67 305 341 344 323 309 281 255 230 212 205 199 197 194 183 178 176 173 178 176 175 172 161 168 197 237 279 300 313 321 324 326 325 321 327 311 301 319 358 89 150 168
139 64 56 50 68 39 343 67 309 313 301 312 318 308 279 247 222 211 195 182 182 176 174 171 174 185 182 181 176 177 182 188 201 264 290 301 309 311 317 318 314 309 300 295 294 300 134 132 145
84 81 36 20 25 304 315 83 263 285 294 288 295 303 300 274 219 203 191 189 188 184 181 178 181 191 190 188 192 194 194 191 202 221 238 260 286 290 292 302 295 290 283 284 297 13 59 158 142
137 128 139 146 203 301 348 313 271 298 312 317 318 322 338 313 255 222 208 200 195 191 185 183 189 197 195 198 205 203 198 196 212 220 224 235 244 259 276 281 278 282 293 304 28 319 289 135 148
121 112 147 125 115 29 330 322 321 344 353 355 356 356 341 320 293 257 223 204 198 195 194 192 193 201 202 203 204 206 207 208 218 228 227 238 248 258 269 273 279 282 284 288 107 68 325 111 129
110 135 95 93 111 26 333 334 309 326 332 340 343 337 327 327 318 288 244 216 207 203 198 190 194 203 207 205 207 209 210 214 218 222 231 240 250 256 265 271 267 270 273 256 133 262 299 86 294
91 81 89 94 131 136 350 294 265 287 310 322 323 326 327 324 318 305 284 248 217 200 192 197 202 206 209 208 212 214 215 213 213 222 234 237 243 243 242 243 239 243 250 232 181 216 182 152 316
126 140 139 130 165 142 152 265 304 308 314 326 329 335 342 341 338 338 338 342 285 220 212 211 211 213 218 211 210 217 220 211 214 228 236 233 238 242 235 231 226 235 236 222 210 232 220 208 238
Height
1501 1501 1501 1503 1505 1511 1512 1507 1504 1503 1501 1501 1501 1502 1503 1506 1509 1515 1511 1510 1511 1513 1514 1516 1517 1518 1519 1520 1520 1521 1522 1522 1523 1523 1523 1524 1524 1524 1525 1525 1525 1526 1526 1526 1526 1526 1526 1526 1526
1501 1502 1504 1504 1510 1518 1514 1505 1504 1501 1501 1501 1502 1503 1504 1506 1507 1509 1510 1511 1512 1514 1515 1516 1517 1518 1519 1520 1520 1521 1521 1522 1522 1522 1523 1523 1524 1524 1524 1524 1524 1525 1525 1525 1525 1525 1525 1525 1525
1501 1502 1504 1506 1512 1516 1511 1503 1502 1500 1501 1501 1503 1504 1506 1507 1508 1509 1511 1512 1513 1515 1516 1517 1518 1518 1519 1520 1520 1520 1521 1521 1522 1522 1522 1522 1522 1523 1523 1523 1523 1524 1524 1524 1524 1524 1525 1525 1525
1502 1504 1505 1509 1511 1507 1504 1501 1501 1501 1501 1502 1503 1506 1507 1509 1509 1510 1511 1513 1514 1516 1517 1518 1518 1519 1519 1520 1520 1520 1520 1521 1521 1521 1521 1521 1521 1522 1522 1522 1522 1522 1522 1523 1523 1523 1523 1524 1524
1502 1503 1508 1512 1509 1503 1501 1500 1501 1501 1501 1502 1504 1506 1508 1509 1510 1511 1512 1514 1515 1516 1517 1518 1519 1519 1520 1520 1520 1520 1520 1520 1520 1520 1520 1520 1520 1520 1520 1520 1520 1521 1521 1521 1521 1522 1522 1522 1523
1502 1504 1512 1515 1508 1502 1500 1500 1501 1501 1502 1503 1504 1506 1509 1510 1511 1512 1513 1515 1516 1517 1518 1519 1519 1520 1520 1520 1520 1520 1520 1520 1519 1519 1519 1519 1519 1519 1519 1519 1519 1519 1519 1519 1519 1520 1520 1520 1521
1503 1506 1511 1510 1509 1504 1501 1500 1501 1501 1502 1503 1504 1506 1509 1510 1512 1513 1515 1516 1517 1518 1519 1520 1520 1520 1520 1520 1520 1520 1520 1519 1519 1519 1519 1518 1518 1518 1518 1518 1517 1517 1517 1517 1518 1518 1518 1518 1519
1501 1506 1509 1510 1509 1505 1501 1500 1501 1501 1502 1504 1505 1506 1507 1510 1512 1513 1515 1517 1518 1519 1520 1520 1520 1520 1520 1520 1520 1520 1520 1519 1519 1519 1518 1518 1517 1517 1517 1517 1516 1516 1516 1516 1516 1516 1516 1516 1517
1502 1509 1512 1509 1507 1504 1500 1501 1501 1502 1502 1503 1504 1505 1506 1509 1511 1513 1515 1517 1518 1519 1520 1520 1520 1521 1521 1521 1520 1520 1520 1519 1519 1519 1518 1518 1517 1517 1516 1516 1516 1515 1515 1515 1514 1514 1514 1514 1515
1502 1510 1508 1503 1503 1502 1501 1502 1502 1502 1503 1503 1504 1505 1506 1508 1510 1512 1514 1516 1517 1518 1519 1520 1520 1521 1521 1521 1520 1520 1520 1519 1519 1518 1518 1517 1517 1516 1515 1515 1515 1514 1514 1513 1513 1513 1512 1512 1513
1500 1504 1502 1501 1501 1501 1501 1501 1501 1502 1503 1502 1502 1503 1506 1508 1510 1512 1513 1515 1517 1518 1519 1520 1520 1520 1521 1520 1520 1520 1519 1519 1518 1518 1517 1516 1516 1515 1515 1514 1513 1513 1512 1512 1512 1511 1511 1511 1511
1500 1501 1501 1501 1501 1501 1501 1501 1502 1502 1502 1501 1502 1503 1505 1507 1509 1511 1513 1514 1516 1517 1518 1519 1520 1520 1520 1520 1520 1519 1519 1518 1518 1517 1516 1516 1515 1514 1513 1513 1512 1511 1511 1510 1510 1510 1509 1509 1510
1500 1500 1500 1500 1500 1501 1500 1501 1502 1500 1500 1500 1502 1503 1505 1507 1509 1511 1513 1514 1515 1517 1518 1519 1519 1519 1520 1520 1519 1519 1518 1518 1517 1516 1515 1515 1514 1513 1512 1511 1511 1510 1509 1509 1508 1508 1508 1508 1508
1499 1500 1500 1500 1500 1500 1501 1500 1500 1498 1499 1500 1501 1502 1504 1506 1508 1510 1512 1513 1514 1516 1517 1518 1519 1519 1519 1519 1519 1518 1518 1517 1516 1515 1515 1514 1513 1512 1511 1510 1509 1508 1508 1507 1507 1506 1506 1506 1506
1499 1502 1502 1501 1500 1501 1501 1502 1499 1496 1498 1499 1500 1502 1504 1506 1508 1509 1510 1512 1513 1515 1516 1517 1518 1518 1518 1518 1518 1518 1517 1517 1516 1515 1514 1513 1512 1511 1510 1509 1508 1507 1506 1505 1505 1504 1504 1504 1504
1501 1505 1509 1503 1501 1501 1505 1508 1497 1496 1496 1497 1499 1501 1503 1504 1506 1507 1509 1511 1513 1514 1516 1517 1517 1518 1518 1518 1518 1517 1517 1516 1515 1514 1513 1512 1511 1510 1509 1508 1507 1506 1505 1504 1503 1503 1503 1503 1503
1507 1512 1511 1506 1502 1502 1504 1504 1495 1495 1496 1496 1497 1499 1500 1502 1504 1506 1508 1510 1512 1513 1515 1516 1516 1517 1517 1517 1517 1517 1516 1515 1514 1513 1512 1511 1510 1509 1508 1507 1506 1505 1504 1503 1502 1502 1501 1501 1501
1513 1512 1512 1509 1503 1503 1504 1502 1494 1494 1495 1494 1495 1496 1498 1499 1500 1503 1506 1508 1510 1512 1514 1515 1516 1516 1516 1516 1516 1516 1515 1515 1514 1513 1512 1510 1509 1508 1507 1506 1505 1504 1503 1502 1501 1500 1500 1500 1500
1504 1508 1511 1506 1501 1503 1504 1501 1494 1491 1492 1492 1492 1493 1494 1496 1499 1501 1504 1506 1509 1511 1512 1514 1514 1515 1515 1515 1515 1515 1515 1514 1513 1512 1511 1510 1509 1508 1506 1505 1504 1503 1502 1501 1500 1500 1499 1499 1500
1504 1509 1510 1505 1501 1503 1504 1500 1493 1490 1489 1489 1490 1491 1492 1494 1496 1499 1501 1504 1506 1509 1510 1512 1513 1513 1514 1514 1514 1514 1514 1513 1513 1512 1511 1510 1509 1507 1506 1505 1504 1502 1501 1500 1500 1499 1499 1499 1499
1505 1508 1508 1508 1504 1503 1505 1504 1496 1490 1489 1488 1488 1489 1491 1492 1494 1496 1499 1501 1504 1506 1508 1510 1511 1512 1513 1513 1513 1513 1513 1512 1512 1511 1510 1509 1508 1507 1506 1504 1503 1502 1501 1500 1499 1499 1498 1498 1499
1509 1502 1503 1506 1511 1517 1512 1522 1504 1497 1492 1489 1488 1488 1489 1491 1492 1494 1496 1499 1501 1504 1507 1509 1510 1511 1512 1512 1512 1512 1512 1512 1511 1511 1510 1509 1508 1507 1506 1504 1503 1502 1501 1500 1499 1499 1498 1498 1498
1503 1500 1503 1506 1512 1519 1517 1522 1514 1501 1497 1492 1489 1488 1488 1489 1491 1492 1494 1497 1500 1503 1505 1507 1508 1509 1510 1511 1511 1511 1511 1511 1510 1510 1509 1508 1508 1507 1505 1504 1503 1502 1501 1500 1499 1498 1498 1498 1498
1500 1504 1508 1514 1520 1528 1522 1524 1521 1508 1501 1495 1490 1488 1488 1488 1489 1491 1493 1496 1498 1501 1503 1505 1507 1508 1509 1509 1510 1510 1510 1510 1509 1509 1509 1508 1507 1506 1505 1504 1503 1502 1501 1500 1499 1498 1498 1498 1498
1503 1515 1530 1532 1537 1534 1522 1523 1520 1503 1498 1495 1492 1489 1488 1488 1489 1490 1491 1493 1496 1498 1501 1503 1505 1506 1507 1508 1508 1508 1508 1509 1509 1508 1508 1507 1507 1506 1505 1504 1503 1502 1502 1501 1500 1499 1498 1497 1497
1505 1512 1530 1538 1540 1536 1525 1524 1513 1500 1496 1494 1491 1490 1488 1488 1488 1489 1490 1492 1494 1497 1499 1501 1503 1504 1505 1506 1507 1507 1507 1507 1507 1507 1507 1506 1506 1505 1505 1504 1503 1502 1501 1501 1500 1499 1498 1497 1497
1506 1513 1514 1528 1533 1538 1531 1521 1508 1497 1496 1494 1492 1490 1489 1489 1489 1489 1490 1491 1493 1495 1497 1499 1501 1502 1504 1504 1505 1505 1506 1506 1506 1506 1506 1506 1505 1505 1504 1504 1503 1502 1501 1500 1500 1499 1498 1497 1497
1501 1510 1520 1529 1540 1544 1535 1530 1525 1508 1503 1498 1495 1493 1491 1489 1489 1489 1489 1491 1492 1494 1496 1498 1499 1501 1502 1503 1503 1504 1504 1505 1505 1505 1505 1504 1504 1504 1503 1503 1502 1502 1501 1500 1499 1498 1498 1497 1497
1507 1513 1522 1531 1532 1544 1543 1537 1514 1510 1506 1502 1498 1496 1493 1490 1489 1489 1489 1490 1491 1493 1494 1496 1497 1498 1500 1500 1501 1502 1502 1503 1503 1503 1503 1503 1503 1502 1502 1502 1501 1501 1500 1500 1499 1498 1498 1497 1496
1501 1508 1518 1527 1533 1537 1542 1537 1509 1508 1506 1503 1499 1496 1494 1492 1490 1490 1489 1489 1490 1491 1492 1493 1495 1496 1497 1498 1499 1499 1500 1500 1500 1501 1501 1501 1501 1501 1500 1500 1500 1499 1499 1499 1498 1498 1497 1496 1496